Find Starlink 6173

NORAD ID: 56385 Int'l Des: 2023-061 Owner: SPXS Country: US Constellation: starlink operational
LEOCIRCULAR

リアルタイム位置

3D地球を読み込み中...

Starlink 6173について

説明を読み込み中...

次回通過

Passes for default location (London). Set your location on the main map for personalized predictions.

高度履歴

Loading altitude history...

軌道要素

1 56385U 23061M 26126.58781515 -.00000694 00000-0 -15691-4 0 9993
2 56385 43.0010 230.9846 0001074 276.8427 83.2302 15.27572044165600
Epoch: May 6, 2026 • Age: 23 hours

現在のステータス

高度 482.9 km
速度 7.63 km/s
衛星直下点 1.19°N, 13.83°W
打ち上げ日 May 4, 2023
運用期間 3 years
タイプ internet

技術仕様

分類 Payload
質量 305.00 kg
乾燥質量 290.00 kg
総質量 305.00 kg
長さ 0.20 m
直径 2.80 m
スパン 9.00 m
形状 Box + pan
製造者 SPXS
バスタイプ Starlink
フェーズステータス In Orbit
所有者/国 SPXS/US

Most Searched